Location: Isle of Man Observatory
(54.1776°N, 4.6264°W)
Time: 14:26:48
(UTC+02:00)

ARIANE 6 FM1 Upper Stage - Pass Details

Date: 16 April 2026
Orbit: 526 x 601 km, 62.0° (Epoch: 19 May)

Event Time Altitude Azimuth Distance (km) Brightness Sun altitude
Rises 02:51:47 0° 307° (NW) 2,683 6.5 -25.4°
Reaches altitude 10° 02:54:01 10° 310° (NW) 1,784 5.6 -25.3°
Enters shadow 02:57:12 51° 338° (NNW) 675 3.3 -25.2°
